Date,TemperatureHighF,TemperatureAvgF,TemperatureLowF,DewpointHighF,DewpointAvgF,DewpointLowF,HumidityHigh,HumidityAvg,HumidityLow,PressureMaxIn,PressureMinIn,WindSpeedMaxMPH,WindSpeedAvgMPH,GustSpeedMaxMPH,PrecipitationSumIn
2013-9-1,94,75,73,78,58,-100,93,70,53,29.75,29.65,10,-93,0,0.00
2013-9-2,92,71,72,78,54,-100,99,74,60,29.71,29.62,5,-115,0,0.10
2013-9-3,86,73,72,76,54,-100,91,64,51,29.87,29.63,6,-84,0,0.00
2013-9-4,85,72,64,65,56,-100,80,62,44,29.98,29.87,7,-31,0,0.00
2013-9-5,86,74,68,69,58,-100,82,62,50,30.03,29.90,10,-31,0,0.00
2013-9-6,80,69,59,58,54,49,75,60,42,30.16,30.03,9,1,0,0.00
2013-9-7,82,71,58,67,62,54,86,73,57,30.05,29.84,8,1,0,0.00
2013-9-8,90,74,68,72,59,-100,90,68,55,29.95,29.77,7,-51,0,0.00
2013-9-9,81,70,64,71,57,-100,89,68,64,30.10,29.96,9,-30,0,0.00
2013-9-10,92,81,72,79,75,71,96,82,62,30.08,29.99,9,2,0,0.00
2013-9-11,95,75,76,80,58,-100,96,71,57,30.05,29.91,7,-104,0,0.00
2013-9-12,92,78,72,78,70,-100,99,82,61,29.90,29.65,8,-20,0,0.31
2013-9-13,80,61,64,71,36,-100,98,60,49,29.84,29.61,9,-155,0,0.01
2013-9-14,71,62,55,54,48,-100,79,64,52,30.07,29.84,4,-21,0,0.00
2013-9-15,77,64,52,61,50,-100,94,69,53,30.14,30.00,9,-31,0,0.00
2013-9-16,73,55,63,63,32,-100,93,65,65,30.13,29.95,7,-176,0,0.02
2013-9-17,69,60,52,58,49,44,85,67,42,30.33,30.14,9,2,0,0.00
2013-9-18,74,62,49,56,51,47,95,71,46,30.26,30.10,5,0,0,0.00
2013-9-19,79,64,54,63,52,-100,95,71,57,30.12,29.98,9,-42,0,0.00
2013-9-20,82,70,59,67,62,57,94,77,58,30.01,29.87,9,1,0,0.00
2013-9-21,78,66,63,67,60,-100,100,85,66,29.89,29.60,11,-19,0,1.03
2013-9-22,74,62,58,62,49,-100,100,73,58,29.86,29.64,7,-57,0,0.00
2013-9-23,67,47,55,52,17,-100,80,54,56,30.00,29.86,5,-220,0,0.00
2013-9-24,74,59,49,56,45,-100,92,68,52,30.03,29.86,2,-42,0,0.00
2013-9-25,75,56,51,57,36,-100,96,65,40,29.89,29.79,5,-106,0,0.00
2013-9-26,76,63,57,61,54,-100,91,75,55,29.98,29.84,6,-20,0,0.00
2013-9-27,72,64,57,61,58,55,94,82,66,30.16,29.99,2,0,0,0.00
2013-9-28,70,41,59,59,3,-100,91,54,64,30.21,30.13,5,-340,0,0.00
2013-9-29,74,55,53,61,35,-100,98,68,62,30.13,29.97,6,-145,0,0.00
2013-9-30,78,65,54,60,57,53,97,77,53,30.01,29.90,6,0,0,0.00